Other Surface Observations
Issued by NWS

Home | Current Version | Previous Version | Text Only | Print | Product List | Glossary On
Versions: 1 2 3 4 5 6 7 8 9 10 11 12 13 14 15 16 17 18 19 20 21 22 23 24 25 26 27 28 29 30 31 32 33 34 35 36 37 38 39 40 41 42 43 44 45 46 47 48 49 50
776
SXUS52 KTAE 220819
OSOTAE
OSOTAE
North Florida/South Alabama/Southwest Georgia Weather Roundup
National Weather Service Tallahassee Florida
400 AM EDT FRI SEP 22 2017

Note: "fair" indicates few or no clouds below 12,000 feet with no
significant weather and/or obstructions to visibility.

!FLZ017-115-028-034-025-220900
...North Florida...

CITY           SKY/WX    TMP DP  RH WIND       PRES   REMARKS
TALLAHASSEE    CLEAR     70  69  97 E5        29.97F
APALACHICOLA   CLEAR     71  71 100 NE7       29.95F
PERRY          NOT AVBL
CROSS CITY     CLEAR     70  70  98 NE3       30.01S FOG
JACKSONVILLE   PTCLDY    70  70 100 CALM      29.96F
$$

!FLZ112-006-005-002-011-220900
...Florida Panhandle...

CITY           SKY/WX    TMP DP  RH WIND       PRES   REMARKS
MARIANNA       CLEAR     70  70 100 CALM      29.97S
BONIFAY        NOT AVBL
PANAMA CITY NW FAIR      70  68  93 CALM      29.95F
TYNDALL AFB    CLEAR     72  70  92 E5        29.96S
TYND DRONE APT FAIR      71  70  95 E6        29.96S
DE FUNIAK SPR  NOT AVBL
EGLIN AFB      PTCLDY    73  68  84 NE3       29.95F
DESTIN         CLEAR     77  71  82 CALM      29.96F
HURLBURT       CLEAR     73  70  89 N3        29.94F
CRESTVIEW      CLEAR     70  68  93 CALM      29.98S
PENSACOLA      CLEAR     77  73  87 N3        29.95F
$$

!ALZ063-066-220900
...South Alabama...

CITY           SKY/WX    TMP DP  RH WIND       PRES   REMARKS
DOTHAN         CLEAR     69  69 100 CALM      30.01S FOG
OZARK CAIRNS   CLEAR     70  68  94 CALM      29.97F
FT RUCKER HELI CLEAR     69  69  98 CALM      29.97S
RUCKER HELI 3  FAIR      71  69  93 CALM      29.97F
RUCKER HELI 2  FAIR      70  69  96 CALM      29.96F
FLORALA APT    NOT AVBL
ANDALUSIA      CLEAR     72  69  90 E3        29.98S FOG
TROY           CLEAR     70  70 100 CALM      29.99S
EUFALA         FAIR      69  69 100 CALM      29.97F FOG
MOBILE         CLEAR     71  69  93 CALM      29.96F
$$

!GAZ120>161-220900
...Southwest and South Central Georgia...

CITY           SKY/WX    TMP DP  RH WIND       PRES   REMARKS
THOMASVILLE    FAIR      70  70 100 CALM      29.98F
BAINBRIDGE     CLEAR     70  70 100 CALM      29.98S
MOODY AFB      PTCLDY    68  68 100 CALM      29.97  FOG
VALDOSTA       CLOUDY    70  70 100 CALM      29.98F FOG
MOULTRIE       CLEAR     70  68  94 E3        30.00R
BLAKELY        CLEAR     70  68  94 CALM      29.98F FOG
ALBANY         CLEAR     70  68  93 CALM      30.00S
TIFTON         FAIR      67  67 100 CALM      29.99S
FITZGERALD     FAIR      69  69 100 CALM      30.02S FOG
CORDELE        FAIR      73  70  91 CALM      30.01S
AMERICUS       FAIR      66  66 100 CALM      30.02S
HOMERVILLE     FAIR      68  68 100 CALM      29.99F FOG
$$

!GMZ750-755-770-775-220900
...Coastal and Buoy Obs...

STATION/POSITION TIME  TEMP    WIND        PRES    VSBY  WAVE
                       AIR SEA DIR/SP/G                  HT/PER
                 (UTC) (F)     (DEG/KT/KT) (MB)    (MI)  (FT/S)
KEATON BEACH     0800   71      70/  4/  5 1014.2F
CEDAR KEY        0800   75      40/  6/  8 1014.5F
C TOWER          0800   80      80/  8/  9 1014.4F
APALACHICOLA BUO 0750   81 82   70/ 10/ 12 1013.2F         1/ 3
PANAMA CITY BUOY 0750   82 83   50/  8/ 10 1013.4F         1/ 5
MOBILE BUOY      0800   82 84   80/  4/  6 1013.9
ORANGE BCH AL BU 0750   81 84     CALM     1013.9F         1
$$




USA.gov is the U.S. government's official web portal to all federal, state and local government web resources and services.